RH
91 94 95 96 99 102 105 105 103 100 101 102 101 99 97 95 93 92 89 84 80 78 78 77 73 69 67 66 64 61 58 54 52 50 47 45 43 41 40 39 39 38
96 98 98 100 103 104 105 105 102 102 104 103 101 100 97 95 95 93 90 85 83 82 83 80 75 71 69 68 66 64 60 57 55 52 50 48 46 44 43 42 42 41
100 101 101 103 104 105 105 104 103 104 105 104 103 102 99 98 98 95 91 88 86 87 87 83 78 74 73 72 70 66 62 60 58 55 53 51 49 47 46 46 45 45
102 102 103 104 104 103 104 103 103 104 104 102 101 99 98 99 98 95 92 88 88 90 89 83 79 76 76 75 72 67 64 63 60 58 56 54 52 50 49 49 49 48
102 102 102 101 101 102 102 102 103 102 100 99 97 97 98 99 96 93 90 89 90 92 88 84 81 80 80 79 74 69 67 66 64 62 59 57 54 53 52 53 52 51
101 100 98 99 101 102 102 101 101 98 97 98 97 98 99 97 95 92 90 91 93 93 89 86 85 85 85 82 75 73 72 70 69 66 63 60 57 56 56 56 55 51
99 97 98 101 103 102 101 100 99 97 98 100 100 100 99 97 95 92 92 95 95 93 91 89 89 90 88 82 78 77 76 75 73 69 66 63 61 60 60 59 55 49
97 98 101 103 102 101 100 100 100 102 103 102 100 101 101 98 95 94 97 99 97 95 93 93 93 92 88 83 82 83 81 78 75 71 68 65 64 64 63 59 53 46
98 99 101 101 101 101 102 102 102 103 102 100 100 102 101 98 96 98 101 102 99 96 96 98 97 92 88 87 89 88 84 81 77 73 70 68 68 66 63 57 50 43
99 100 100 101 102 102 103 103 104 102 100 99 102 102 99 97 98 101 104 102 99 99 100 101 97 92 91 93 93 90 86 83 78 74 72 71 70 66 60 53 46 39
101 101 101 101 102 103 105 105 103 101 100 101 102 100 98 99 100 103 104 102 100 102 104 102 97 95 96 98 95 91 87 83 79 76 74 72 69 63 56 48 41 33
102 101 101 102 102 104 106 104 101 101 103 103 101 99 99 100 102 104 104 102 102 105 104 101 99 99 101 101 98 93 89 84 80 78 75 71 65 57 50 42 34 26
101 100 100 101 103 105 106 105 102 102 103 102 100 100 101 102 104 104 103 103 104 106 103 101 101 103 104 103 99 95 91 85 82 78 73 67 58 51 43 34 27 22
99 98 98 100 103 104 105 105 103 101 101 101 100 101 102 104 105 104 104 103 104 105 104 103 104 105 105 103 100 96 91 86 81 75 68 60 51 43 35 26 22 22
96 95 97 101 103 104 104 103 101 99 100 100 100 102 104 105 104 102 103 103 104 104 104 105 107 106 106 104 100 95 90 84 77 69 60 52 43 35 26 21 21 25
94 95 98 102 105 104 102 99 98 100 101 101 101 103 104 104 103 102 103 103 104 105 106 106 107 106 106 104 98 93 87 79 69 60 52 44 34 26 20 19 24 34
94 97 101 104 104 102 99 99 101 103 103 102 103 104 104 102 102 103 103 103 102 104 106 106 105 106 106 101 95 89 81 70 60 51 43 34 25 21 19 21 32 47
98 101 104 104 103 102 101 101 103 104 103 104 105 104 104 104 103 101 101 103 104 105 105 104 105 106 103 96 89 82 72 61 51 41 32 25 20 18 18 21 31 46
102 104 104 103 103 104 104 103 103 102 103 105 106 104 102 104 104 102 102 104 106 106 105 105 106 104 97 89 80 72 62 51 41 30 24 21 18 18 19 21 29 36
103 103 103 103 103 104 104 103 102 102 104 105 105 103 101 102 103 103 103 103 105 106 105 103 102 98 90 80 70 61 51 40 30 23 20 20 19 21 23 25 31 36
102 103 103 104 103 102 101 101 101 103 105 104 102 101 101 102 102 102 104 104 106 106 102 98 97 91 80 69 60 50 39 29 23 21 20 21 23 26 30 34 37 43
102 103 104 103 101 99 98 99 102 104 103 102 102 102 102 102 101 102 105 107 107 104 98 93 89 80 69 59 49 38 28 22 21 21 22 23 27 31 36 40 46 55
103 103 102 100 97 95 96 99 104 104 102 102 103 101 101 102 102 103 105 107 105 100 93 86 79 69 58 47 37 27 22 21 21 22 24 27 32 38 42 47 58 71
103 101 98 96 94 94 98 102 103 102 102 103 102 100 101 101 103 105 107 106 102 95 87 77 67 58 46 34 26 22 21 22 23 24 27 32 36 41 48 61 78 89
102 98 97 94 93 96 101 103 101 100 101 101 100 101 102 101 103 106 105 101 97 89 78 67 56 45 34 25 21 22 23 24 24 26 31 36 39 43 55 74 90 92
100 97 95 93 96 101 102 100 101 101 101 100 102 102 102 102 105 104 99 94 89 80 69 57 44 32 24 21 21 23 25 25 25 29 36 40 42 49 65 84 92 85
Wind_Speed
68 68 69 69 69 69 69 70 71 71 71 71 71 71 71 71 71 71 71 71 71 70 71 71 72 72 72 72 73 74 75 77 78 79 80 81 82 83 84 84 84 84
68 69 69 69 69 69 70 71 71 71 71 71 72 72 72 71 71 71 71 71 70 70 71 71 72 72 72 73 74 75 76 78 79 80 81 82 83 84 84 85 85 85
68 68 68 68 69 70 70 71 71 71 72 72 72 72 72 72 71 71 71 70 70 70 71 71 72 73 73 74 75 76 77 79 80 81 82 83 84 85 85 85 85 85
68 68 68 69 69 70 71 71 72 72 73 73 73 73 72 72 72 71 71 70 70 70 71 72 72 73 74 75 76 77 78 80 81 82 83 84 85 86 86 85 85 86
67 67 68 69 69 70 71 71 72 72 73 73 73 72 72 71 71 71 70 70 70 71 71 72 73 74 75 75 77 78 80 81 82 84 85 85 86 86 86 86 86 87
66 67 68 69 70 70 71 71 72 73 73 73 72 71 71 71 71 70 70 70 70 71 72 72 73 74 75 76 78 79 81 82 83 85 85 86 86 87 87 87 87 88
66 67 68 69 70 71 71 72 72 73 72 72 71 71 71 71 70 70 70 70 71 71 72 73 74 75 76 77 79 81 82 83 84 86 86 87 87 87 87 88 89 89
67 68 69 70 71 72 72 72 73 72 72 71 70 70 70 70 69 69 69 70 71 71 72 74 75 76 77 78 80 82 83 84 85 86 87 87 88 88 88 89 90 89
67 68 69 71 72 72 73 73 72 72 71 70 70 69 69 69 68 69 70 70 71 71 73 74 75 76 78 80 82 83 84 86 86 87 88 88 88 88 89 90 90 88
68 69 70 71 72 73 73 72 72 71 70 70 69 69 68 68 68 69 70 70 71 72 73 74 76 77 79 81 83 84 86 86 87 88 88 88 89 89 90 90 89 86
68 69 71 72 73 73 72 72 71 70 69 69 68 68 67 67 68 69 70 70 71 72 74 75 76 78 80 82 84 86 87 87 88 89 89 89 90 90 90 90 87 83
69 70 71 72 73 72 72 70 69 69 68 68 67 67 67 67 68 69 69 70 72 73 74 76 77 79 82 83 85 86 87 88 89 89 89 90 90 90 90 88 84 79
70 71 72 73 73 72 71 69 68 67 67 67 66 66 66 67 68 69 69 71 72 73 75 77 79 81 83 85 86 87 88 89 89 90 90 91 91 90 88 84 80 74
71 72 73 73 73 71 70 68 67 67 66 66 65 65 66 67 68 69 70 71 72 74 76 78 80 82 84 86 87 88 89 89 90 91 91 91 90 88 85 80 75 70
71 72 73 73 72 70 68 67 66 66 65 65 65 65 66 67 68 69 70 71 73 75 77 79 81 83 85 86 87 88 89 90 91 92 92 91 89 85 80 74 70 66
72 73 73 73 71 68 67 66 66 65 64 64 65 65 66 67 68 69 70 72 74 76 78 80 82 84 86 87 88 89 90 91 92 92 91 89 85 80 74 69 66 62
72 73 73 71 69 67 66 65 64 63 63 63 64 65 66 67 68 69 71 73 75 77 80 82 83 85 86 88 89 90 91 93 92 91 89 85 79 74 69 65 62 58
73 72 71 69 67 66 65 64 62 62 62 63 63 65 66 67 68 70 72 74 76 79 81 82 84 85 87 88 89 90 92 94 93 91 86 80 74 68 64 60 57 54
72 71 70 68 66 64 63 62 61 61 62 62 63 65 66 68 69 71 73 76 78 80 81 83 84 86 87 88 89 90 92 93 92 88 81 75 69 65 61 58 55 52
72 70 69 66 64 63 62 61 61 61 61 62 64 66 67 68 70 72 75 77 79 81 82 83 84 86 87 89 90 90 90 90 87 82 75 70 66 62 58 55 52 49
71 69 67 65 63 62 60 60 60 60 61 63 64 66 67 69 71 74 76 78 80 82 83 83 85 86 88 89 90 89 88 85 81 75 70 66 62 59 56 53 50 47
70 68 65 63 62 60 60 59 59 60 62 64 65 66 68 70 73 75 77 79 81 82 83 83 85 87 88 89 89 87 84 80 74 69 65 62 59 56 53 51 48 45
69 66 63 62 60 59 59 59 60 61 63 64 66 67 69 72 74 76 78 80 81 82 83 83 85 87 88 88 86 82 78 74 69 65 61 58 56 54 51 48 45 43
66 63 62 60 59 59 58 59 60 62 63 65 67 69 71 73 75 77 79 80 82 82 83 84 85 87 87 85 81 76 72 69 65 61 58 55 53 51 48 45 43 41
64 61 60 59 58 58 58 59 61 62 64 66 68 70 72 74 76 78 79 81 82 83 84 85 86 85 84 80 75 71 67 65 61 58 55 52 50 48 45 42 40 40
61 60 59 58 57 58 58 60 61 63 65 67 69 72 73 75 77 78 80 81 82 83 84 86 85 83 78 74 70 66 63 61 58 55 53 50 48 45 42 40 39 39
Wind_Direction
302 302 302 302 301 301 300 299 299 299 299 299 298 298 298 298 298 297 297 297 297 297 297 297 297 298 299 300 300 300 300 301 301 302 303 304 304 303 302 301 300 300
302 302 302 302 302 301 300 300 300 300 299 299 298 298 298 298 298 297 297 297 297 297 297 297 298 299 300 300 300 301 301 301 302 303 304 304 304 303 302 302 301 300
303 303 303 302 302 301 301 301 301 300 300 299 299 298 298 298 298 297 297 297 298 298 298 298 299 300 300 301 301 301 302 302 303 304 304 304 304 303 303 302 302 301
303 303 303 303 302 302 302 301 301 301 300 299 299 299 299 298 298 298 298 298 298 299 299 299 300 301 301 301 301 302 302 303 303 304 304 305 304 304 303 303 302 302
304 304 304 303 303 303 302 302 301 301 300 300 300 300 299 298 298 298 298 298 299 299 299 299 300 301 301 301 302 302 303 303 304 304 305 305 304 304 304 303 303 303
305 305 304 304 303 303 302 302 301 300 300 300 300 300 299 298 298 298 299 299 299 299 299 300 301 301 302 302 302 302 303 304 304 304 305 305 304 304 304 304 304 304
305 305 305 304 303 303 302 301 301 301 301 300 300 299 299 298 298 299 299 299 299 299 300 301 301 302 302 302 302 303 303 304 304 305 305 305 305 305 305 304 305 305
306 306 305 304 303 303 302 301 301 301 300 300 300 299 298 298 299 299 299 299 299 300 300 301 302 302 302 302 303 303 304 304 305 305 305 305 305 305 305 305 305 305
306 305 304 304 303 303 302 302 301 301 300 300 299 299 298 299 299 299 299 299 299 300 301 302 302 302 302 303 303 303 304 305 305 306 306 306 305 305 305 306 305 305
305 305 305 304 304 303 302 302 301 301 301 300 299 299 299 300 300 299 299 299 300 301 302 302 302 302 302 303 303 304 304 305 306 306 306 306 306 306 306 306 305 304
306 305 305 304 304 303 302 302 301 301 301 300 299 299 300 300 300 299 299 300 301 302 302 302 302 302 303 303 303 304 305 306 306 306 306 306 306 306 306 305 305 303
306 306 305 304 304 303 302 302 302 301 300 300 300 300 300 300 300 300 300 301 302 302 302 302 302 303 303 303 304 305 305 306 306 306 306 306 306 306 306 305 304 302
306 306 305 304 303 303 303 303 302 301 300 300 300 301 300 300 300 300 301 302 302 302 302 302 303 303 304 304 305 305 306 306 306 306 306 306 306 306 306 304 303 300
306 305 305 304 303 303 303 303 302 301 300 301 301 301 300 300 300 301 301 302 302 302 302 303 304 304 304 305 305 306 306 306 306 306 306 306 306 306 305 303 301 298
306 305 305 304 304 304 303 302 301 301 301 301 301 300 300 300 301 302 302 302 302 303 303 304 304 305 305 306 306 306 306 306 306 306 307 307 307 306 304 302 299 295
306 305 305 305 304 304 303 302 301 302 302 301 301 300 300 301 302 302 302 302 303 304 304 305 305 305 306 306 307 307 306 306 306 307 307 307 306 305 303 300 297 294
306 305 305 305 304 303 302 302 302 302 302 301 300 301 301 302 302 303 303 303 304 305 305 305 306 306 307 307 307 307 307 307 307 307 307 306 305 304 301 298 295 292
306 306 305 304 303 303 302 302 302 302 302 301 301 301 302 303 303 303 304 304 305 305 306 306 307 307 307 307 308 308 307 307 307 308 307 306 304 302 299 296 293 290
306 306 305 304 303 303 303 303 303 302 302 301 301 302 302 303 303 304 304 305 305 306 307 307 308 308 308 308 308 308 308 308 308 308 307 305 304 302 299 296 293 290
306 305 304 304 304 303 303 303 303 302 302 302 302 303 303 304 304 305 305 306 306 307 308 308 309 309 309 309 309 309 308 308 307 307 306 305 303 301 299 297 294 291
306 305 305 304 303 303 304 304 303 303 302 302 303 304 304 305 305 306 306 307 307 308 309 309 310 309 309 309 309 309 309 307 307 306 305 304 303 301 299 297 295 292
306 306 305 304 303 304 305 304 304 303 303 303 304 305 305 305 306 307 308 308 308 309 310 310 310 310 310 310 310 309 308 307 306 305 304 303 302 300 298 297 295 292
306 306 304 304 304 305 305 305 304 304 304 304 305 305 306 307 307 308 309 309 309 310 311 311 311 311 311 311 310 309 307 306 305 304 304 303 301 300 298 297 295 293
306 305 304 304 305 306 306 305 305 304 305 305 306 306 307 308 309 309 309 310 310 311 311 312 312 312 312 311 310 308 307 305 304 304 303 302 300 299 298 296 295 292
305 304 304 306 306 306 306 306 305 305 306 306 307 307 308 309 310 310 310 311 311 312 312 313 313 313 312 311 309 307 306 304 304 304 302 301 300 299 298 296 294 291
305 305 306 307 307 307 306 306 306 306 306 307 308 309 309 310 310 311 311 312 312 313 313 313 314 313 312 310 309 306 305 304 304 303 301 300 300 299 298 296 293 290